[[{"header":{"parameterUnit":"m.s-1","parameterCategory":1,"la1":30.2991,"la2":30.254,"lo1":-89.0895,"lo2":-89.0444,"dy":0.0017,"dx":0.0017,"nx":28,"ny":28,"refTime":"2023-07-29T09:00:00:Z","depth":0,"parameterNumber":2,"parameterNumberName":"U-component_of_WINDS"},"data":[0,0,0,0,0,0,0,0,0,0,0,0,0,0,0,0,0,0,0,0,0,0,0,0,0,0,0,0,0,0,0,0,0,0,0,0,0,0,0,0,0,0,0,0,0,0,0,0,0,0,0,0,0,0,0,0,0,0,2.8736,2.8736,0,2.8825,2.8826,2.8827,2.8788,2.8786,2.8784,2.8782,2.8878,2.8883,2.8887,0,0,0,0,0,0,0,0,0,0,0,0,0,2.8537,2.8541,2.8735,2.8737,2.8738,2.8825,2.8826,2.8827,2.8789,2.8786,2.8783,2.8781,2.8877,2.8882,2.8888,0,0,0,0,0,0,0,0,0,0,0,0,0,2.8624,2.8542,2.8735,2.8729,2.8729,2.8825,2.8826,2.8828,2.8789,2.8786,2.8783,2.878,2.8875,2.8881,2.8888,2.8997,0,0,2.8909,2.8912,0,0,0,0,0,0,0,0,2.862,2.8632,2.8729,2.8729,2.873,2.8792,2.8791,2.8885,2.879,2.8767,2.8782,2.8778,2.8852,2.8861,2.8885,2.9001,2.9005,2.891,2.8914,2.8917,2.8919,0,0,0,0,0,0,0,2.8614,2.8628,2.8771,2.873,2.8731,2.8723,2.8732,2.8809,2.8827,2.8768,2.8766,2.8777,2.8852,2.8879,2.8887,2.9007,2.891,2.8916,2.892,2.8923,2.922,2.9224,0,0,0,0,0,0,2.8607,2.8623,2.8768,2.8774,2.8665,2.873,2.8739,2.8776,2.8826,2.883,2.8779,2.8775,2.8868,2.8879,2.889,2.9023,2.8917,2.8924,2.8928,2.9217,2.9221,2.9225,0,0,0,0,0,0,2.8603,2.862,2.8765,2.8698,2.8715,2.8736,2.8777,2.8779,2.8805,2.8834,2.8838,2.8803,2.8866,2.8881,2.8971,2.9026,2.8927,2.8933,2.9212,2.9218,2.9223,2.9289,0,0,0,0,0,0,2.8597,2.8619,2.8659,2.8699,2.8719,2.8842,2.8781,2.8783,2.8817,2.8811,2.8857,2.8862,2.8865,2.8961,2.8978,2.9034,2.8938,2.9207,2.9215,2.9221,2.9282,2.9296,2.9308,0,0,0,0,0,2.859,2.8674,2.8661,2.8679,2.8769,2.8845,2.8857,2.8858,2.8821,2.8863,2.8882,2.886,2.9017,2.8971,2.8989,2.9048,2.9204,2.9213,2.9221,2.9276,2.9293,2.9307,0,0,0,0,0,0,2.8641,2.8679,2.8665,2.8764,2.8802,2.8839,2.8891,2.8876,2.8926,2.8919,2.8919,2.8929,2.9024,2.9045,2.8992,2.9158,2.9105,2.9118,2.9141,2.9157,2.917,2.9164,2.8944,0,0,0,0,0,2.8663,2.872,2.8751,2.8835,2.8855,2.887,2.8903,2.89,2.894,2.8956,2.8982,2.9023,2.9081,2.912,2.9175,2.9284,2.9295,2.9334,2.9347,2.9357,2.9369,2.9432,2.945,2.9253,2.9253,2.9253,0,0,2.871,2.8738,2.8774,2.8846,2.8875,2.8937,2.8884,2.895,2.8996,2.8967,2.9054,2.9074,2.912,2.9221,2.9267,2.9242,2.9426,2.9368,2.9377,2.9383,2.9442,2.9461,2.9477,2.9259,2.9258,2.9257,0,0,2.8829,2.8854,2.8928,2.8959,2.9003,2.9013,2.9031,2.9071,2.9083,2.917,2.915,2.9206,2.9306,2.9341,2.9371,2.9505,2.9488,2.9523,2.9592,2.9653,2.9668,2.9682,2.9733,2.9751,2.9534,2.9534,2.9534,0,2.8882,2.8972,2.8969,2.9038,2.9071,2.9046,2.9124,2.9153,2.9214,2.9239,2.9209,2.9336,2.9365,2.9475,2.9508,2.9533,2.9556,2.9518,2.9666,2.968,2.9693,2.9741,2.976,2.9538,2.9538,2.9537,2.9537,0,2.9038,2.9101,2.9156,2.9214,2.9254,2.9326,2.9337,2.9377,2.9372,2.9385,2.9477,2.951,2.9574,2.9599,2.9594,2.971,2.9693,2.9665,2.9613,2.9716,2.9761,2.978,2.9544,2.9543,2.9541,2.954,0,0,2.9191,2.9247,2.9268,2.9296,2.9343,2.9393,2.9466,2.9526,2.9563,2.9606,2.9669,2.9755,2.973,2.9765,2.9764,2.9817,2.9924,2.9782,2.9784,2.981,3.0057,3.008,3.0101,2.9912,2.9916,2.9919,3.0055,0,2.9314,2.944,2.944,2.9558,2.9617,2.9595,2.9659,2.9697,2.9712,2.9767,2.9784,2.9846,2.9806,2.9828,2.9879,2.99,2.9974,2.989,2.9974,2.9977,2.9966,3.0125,3.0149,3.0275,3.0072,3.0075,3.0077,0,2.9475,2.9524,2.9647,2.9688,2.9713,2.977,2.9827,2.9879,2.9922,2.993,2.997,2.9961,3.0038,2.9982,3.009,3.0033,3.0067,3.0083,3.0088,3.0098,3.0035,3.0142,3.0315,3.0335,3.0105,3.0102,3.01,0,2.9578,2.9674,2.976,2.9784,2.9834,2.9875,2.9898,2.9938,2.9975,3.0026,3.0051,3.011,3.0143,3.019,3.0199,3.0157,3.0308,3.0252,3.0319,3.0319,3.0354,3.0352,3.0538,3.0372,3.0371,3.0371,3.0371,0,2.9718,2.9795,2.9807,2.9861,2.9948,2.9948,3.0034,3.0054,3.009,3.0149,3.0133,3.019,3.0196,3.0255,3.0263,3.0353,3.0367,3.0377,3.0379,3.038,3.0379,3.0405,3.0397,3.0376,3.0375,3.0374,3.0373,0,2.9848,2.9859,2.9953,2.9992,3.0004,3.0066,3.0101,3.0154,3.0167,3.0243,3.026,3.0282,3.0351,3.0364,3.0445,3.045,3.0558,3.055,3.0544,3.0544,3.0611,3.0606,3.0822,3.0852,3.0663,3.0665,3.0666,0,2.9938,2.9997,3.0042,3.008,3.0105,3.0166,3.0204,3.0208,3.0248,3.0303,3.035,3.0417,3.047,3.0582,3.0606,3.0669,3.0664,3.0735,3.0673,3.0674,3.0669,3.0666,3.0673,3.0748,3.075,3.0752,3.0753,0,3.0097,3.01,3.0155,3.0212,3.0258,3.0304,3.0347,3.038,3.0389,3.0436,3.0506,3.0547,3.063,3.0698,3.0761,3.0787,3.0774,3.0772,3.0791,3.0795,3.079,3.0797,3.0579,3.0768,3.0766,3.0765,3.0764,3.0764,3.0212,3.0264,3.0305,3.0368,3.04,3.0442,3.0494,3.0514,3.0571,3.0638,3.0637,3.0714,3.0759,3.0842,3.0872,3.0934,3.0911,3.0939,3.0946,3.0954,3.0961,3.0778,3.0945,3.0944,3.0944,3.0944,3.0943,0,3.0373,3.0398,3.0455,3.0517,3.0567,3.0547,3.0594,3.0638,3.0706,3.0748,3.0801,3.0882,3.0948,3.0978,3.1044,3.1088,3.1084,3.1106,3.1104,3.1111,3.0976,3.0954,3.1108,3.1108,3.1108,3.1108,3.1108,3.1108,3.0463,3.0551,3.0559,3.0665,3.069,3.0764,3.0794,3.0833,3.0866,3.0958,3.1012,3.103,3.1069,3.1137,3.1198,3.1205,3.1232,3.1258,3.1262,3.1137,3.112,3.1104,3.1084,3.1262,3.1263,3.1392,3.1394,3.1394]},{"header":{"parameterUnit":"m.s-1","parameterCategory":1,"la1":30.2991,"la2":30.254,"lo1":-89.0895,"lo2":-89.0444,"dy":0.0017,"dx":0.0017,"nx":28,"ny":28,"refTime":"2023-07-29T09:00:00:Z","depth":0,"parameterNumber":3,"parameterNumberName":"V-component_of_WINDS"},"data":[0,0,0,0,0,0,0,0,0,0,0,0,0,0,0,0,0,0,0,0,0,0,0,0,0,0,0,0,0,0,0,0,0,0,0,0,0,0,0,0,0,0,0,0,0,0,0,0,0,0,0,0,0,0,0,0,0,0,-1.6676,-1.6675,0,-1.667,-1.667,-1.6669,-1.6662,-1.6662,-1.6662,-1.6662,-1.6653,-1.6653,-1.6653,0,0,0,0,0,0,0,0,0,0,0,0,0,-1.668,-1.668,-1.6676,-1.6675,-1.6675,-1.667,-1.667,-1.6669,-1.6662,-1.6662,-1.6662,-1.6662,-1.6653,-1.6653,-1.6653,0,0,0,0,0,0,0,0,0,0,0,0,0,-1.6676,-1.668,-1.6676,-1.6671,-1.6671,-1.667,-1.667,-1.6669,-1.6662,-1.6662,-1.6662,-1.6661,-1.6653,-1.6653,-1.6653,-1.6656,0,0,-1.6653,-1.6653,0,0,0,0,0,0,0,0,-1.6676,-1.6676,-1.6672,-1.6671,-1.6671,-1.6666,-1.6668,-1.6665,-1.6662,-1.6665,-1.6662,-1.6661,-1.6658,-1.6657,-1.6656,-1.6655,-1.6655,-1.6653,-1.6652,-1.6652,-1.6652,0,0,0,0,0,0,0,-1.6677,-1.6676,-1.6673,-1.6672,-1.6671,-1.6669,-1.6668,-1.6667,-1.6662,-1.6665,-1.6664,-1.6664,-1.6657,-1.6657,-1.6656,-1.6655,-1.6653,-1.6652,-1.6652,-1.6652,-1.6657,-1.6657,0,0,0,0,0,0,-1.6678,-1.6676,-1.6673,-1.6673,-1.6673,-1.6669,-1.6668,-1.6668,-1.6662,-1.6661,-1.6664,-1.6664,-1.6657,-1.6656,-1.6656,-1.6659,-1.6652,-1.6652,-1.6652,-1.6657,-1.6657,-1.6657,0,0,0,0,0,0,-1.6678,-1.6678,-1.6674,-1.6675,-1.6674,-1.6669,-1.6669,-1.6668,-1.6667,-1.6662,-1.6661,-1.6664,-1.6657,-1.6656,-1.6656,-1.6659,-1.6652,-1.6652,-1.6656,-1.6657,-1.6657,-1.6666,0,0,0,0,0,0,-1.6678,-1.6678,-1.6678,-1.6675,-1.6674,-1.6674,-1.6669,-1.6668,-1.6667,-1.6666,-1.6662,-1.6661,-1.6657,-1.6657,-1.6656,-1.6658,-1.6652,-1.6656,-1.6657,-1.6657,-1.6665,-1.6666,-1.6667,0,0,0,0,0,-1.6678,-1.668,-1.6679,-1.6678,-1.6675,-1.6674,-1.6674,-1.667,-1.6667,-1.6668,-1.6665,-1.6661,-1.6659,-1.6657,-1.6656,-1.6658,-1.6656,-1.6656,-1.6657,-1.6665,-1.6666,-1.6667,0,0,0,0,0,0,-1.6683,-1.668,-1.6678,-1.6679,-1.6677,-1.6673,-1.6674,-1.6671,-1.667,-1.6669,-1.6663,-1.6662,-1.6663,-1.6661,-1.6659,-1.6661,-1.6657,-1.6657,-1.6663,-1.6664,-1.6665,-1.6666,-1.6652,0,0,0,0,0,-1.6685,-1.6685,-1.6682,-1.6683,-1.6682,-1.6678,-1.6678,-1.6675,-1.6673,-1.6672,-1.6669,-1.6666,-1.6665,-1.6665,-1.6663,-1.6665,-1.6664,-1.6667,-1.6668,-1.6669,-1.6669,-1.6671,-1.6672,-1.6659,-1.6659,-1.6659,0,0,-1.6687,-1.6685,-1.6685,-1.6684,-1.6682,-1.6683,-1.6678,-1.6678,-1.6678,-1.6672,-1.6672,-1.667,-1.6667,-1.6668,-1.6669,-1.6666,-1.6673,-1.6669,-1.667,-1.667,-1.6671,-1.6673,-1.6674,-1.6659,-1.6659,-1.6659,0,0,-1.6692,-1.669,-1.6692,-1.6691,-1.6689,-1.6687,-1.6688,-1.6685,-1.6683,-1.6684,-1.668,-1.668,-1.6678,-1.6676,-1.6675,-1.6682,-1.6678,-1.6682,-1.6687,-1.6689,-1.669,-1.6691,-1.6694,-1.6695,-1.6682,-1.6682,-1.6682,0,-1.6695,-1.6696,-1.6693,-1.6694,-1.6694,-1.6689,-1.6691,-1.669,-1.6688,-1.6688,-1.6685,-1.6684,-1.6682,-1.6683,-1.6685,-1.6684,-1.6685,-1.6682,-1.669,-1.6691,-1.6692,-1.6695,-1.6696,-1.6683,-1.6683,-1.6683,-1.6682,0,-1.67,-1.6701,-1.6702,-1.6701,-1.6701,-1.6703,-1.67,-1.67,-1.6698,-1.6697,-1.6698,-1.6695,-1.6694,-1.6694,-1.6691,-1.6696,-1.6695,-1.6691,-1.6687,-1.6694,-1.6696,-1.6697,-1.6683,-1.6683,-1.6683,-1.6683,0,0,-1.6706,-1.6705,-1.6706,-1.6706,-1.6705,-1.6706,-1.6707,-1.6707,-1.6708,-1.6707,-1.6708,-1.6708,-1.6706,-1.6705,-1.6702,-1.6704,-1.671,-1.67,-1.67,-1.6703,-1.6716,-1.6719,-1.672,-1.6708,-1.6709,-1.6709,-1.6717,0,-1.6711,-1.6714,-1.6712,-1.6716,-1.6717,-1.6714,-1.6716,-1.6715,-1.6714,-1.6715,-1.6713,-1.6713,-1.671,-1.6709,-1.6711,-1.6709,-1.6713,-1.6709,-1.671,-1.671,-1.671,-1.6721,-1.6724,-1.6731,-1.6718,-1.6718,-1.6718,0,-1.6716,-1.6717,-1.6721,-1.6721,-1.6722,-1.6723,-1.6724,-1.6725,-1.6724,-1.6724,-1.6724,-1.6721,-1.6723,-1.6719,-1.6722,-1.6719,-1.6719,-1.6719,-1.6719,-1.6719,-1.6714,-1.6722,-1.6734,-1.6735,-1.6719,-1.6719,-1.6719,0,-1.6721,-1.6723,-1.6726,-1.6726,-1.6727,-1.6728,-1.6728,-1.6728,-1.6729,-1.6729,-1.673,-1.673,-1.673,-1.6731,-1.6729,-1.6726,-1.6732,-1.6728,-1.6731,-1.6732,-1.6732,-1.6732,-1.6745,-1.6733,-1.6733,-1.6733,-1.6733,0,-1.6726,-1.6729,-1.6729,-1.673,-1.6734,-1.6732,-1.6735,-1.6735,-1.6735,-1.6737,-1.6734,-1.6736,-1.6733,-1.6735,-1.6733,-1.6736,-1.6736,-1.6736,-1.6735,-1.6736,-1.6736,-1.6736,-1.6735,-1.6733,-1.6733,-1.6733,-1.6733,0,-1.6732,-1.6731,-1.6735,-1.6736,-1.6736,-1.6738,-1.6739,-1.6741,-1.674,-1.6743,-1.6743,-1.6742,-1.6744,-1.6743,-1.6744,-1.6743,-1.6747,-1.6746,-1.6748,-1.6747,-1.6751,-1.6751,-1.6764,-1.6766,-1.6753,-1.6753,-1.6753,0,-1.6735,-1.6737,-1.6739,-1.6741,-1.6741,-1.6743,-1.6745,-1.6744,-1.6745,-1.6747,-1.6748,-1.6751,-1.6752,-1.6755,-1.6754,-1.6756,-1.6754,-1.6759,-1.6755,-1.6756,-1.6755,-1.6755,-1.6756,-1.676,-1.676,-1.676,-1.676,0,-1.6741,-1.6741,-1.6744,-1.6746,-1.6748,-1.675,-1.6752,-1.6753,-1.6753,-1.6754,-1.6757,-1.6758,-1.6761,-1.6763,-1.6765,-1.6765,-1.6762,-1.6762,-1.6763,-1.6763,-1.6765,-1.6765,-1.675,-1.6761,-1.6761,-1.6761,-1.6761,-1.6761,-1.6745,-1.6748,-1.675,-1.6753,-1.6755,-1.6757,-1.6759,-1.676,-1.6762,-1.6765,-1.6765,-1.6768,-1.6769,-1.6771,-1.6772,-1.6774,-1.6772,-1.6774,-1.6774,-1.6774,-1.6775,-1.6765,-1.6775,-1.6775,-1.6774,-1.6774,-1.6774,0,-1.6752,-1.6754,-1.6757,-1.676,-1.6763,-1.6762,-1.6764,-1.6766,-1.677,-1.6771,-1.6774,-1.6777,-1.678,-1.678,-1.6783,-1.6785,-1.6784,-1.6786,-1.6786,-1.6786,-1.6777,-1.6776,-1.6787,-1.6787,-1.6787,-1.6787,-1.6787,-1.6787,-1.6755,-1.676,-1.6761,-1.6767,-1.6768,-1.6772,-1.6774,-1.6776,-1.6778,-1.6783,-1.6785,-1.6786,-1.6788,-1.6791,-1.6793,-1.6793,-1.6794,-1.6797,-1.6796,-1.6787,-1.6786,-1.6785,-1.6784,-1.6797,-1.6797,-1.6805,-1.6805,-1.6805]}]]